Theta_e
350 352 354 354 353 352 352 352 352 350 350 350 350 350 350 349 350 350 351 352 352 353 353 353 354 353 353 354 354 354 354 353 353 353 353 353 353 353 353 352 352 352 352 351 351 351 352 352 352 352 352 350 350 351 351 350 349 348 348 349 349 349 349 349 348 348 349 348 348 349 348 350 349 350 350 349 349 349 348 348 348 347 348 347 348
350 352 355 354 353 352 352 351 351 350 350 349 349 350 350 349 349 349 350 351 352 352 353 353 353 353 354 354 354 354 354 353 353 353 353 353 353 353 352 352 352 352 352 351 351 351 352 351 351 351 351 349 350 350 350 350 348 348 348 348 348 348 348 348 348 348 348 348 348 348 348 349 349 349 350 349 348 349 348 348 347 348 347 347 348
352 354 354 353 352 352 353 351 350 350 349 349 350 349 349 349 349 349 350 351 351 352 352 353 353 354 354 354 354 354 354 353 353 353 353 352 353 353 352 352 352 352 352 352 352 351 350 350 351 351 350 349 348 348 350 349 349 347 347 347 348 348 348 348 348 348 348 348 348 348 348 348 348 349 349 349 348 348 347 347 346 346 347 347 347
351 353 353 352 353 353 351 352 350 349 348 348 350 349 348 348 349 349 350 350 352 352 353 353 353 353 354 354 354 354 354 353 353 353 353 352 352 353 352 351 351 351 351 351 350 350 350 349 350 350 350 351 350 350 349 349 346 345 345 346 347 347 348 348 348 348 348 348 347 346 347 348 347 348 348 348 347 347 347 347 347 347 346 347 346
351 351 351 351 350 352 352 351 350 349 349 348 348 348 348 349 349 350 350 352 352 353 352 353 353 353 353 353 354 354 353 353 353 353 352 352 352 351 350 349 348 348 350 350 350 350 349 348 350 350 350 350 349 348 348 346 344 345 346 346 347 347 347 347 347 348 348 348 347 347 347 345 347 347 347 347 346 346 346 346 345 346 346 346 346
351 351 350 350 350 351 351 351 349 349 348 348 348 348 348 348 349 349 351 352 353 353 353 353 353 353 353 354 354 353 353 353 352 351 350 350 350 348 348 347 346 347 348 348 348 348 347 347 348 349 349 349 350 348 345 343 345 346 347 347 347 347 347 347 348 348 347 347 346 346 346 346 345 344 345 346 345 345 345 345 345 345 344 345 345
352 351 350 350 350 350 352 351 350 349 348 348 348 348 348 348 348 350 352 353 353 353 353 353 353 353 353 354 353 353 353 352 350 349 348 347 347 347 346 345 345 344 344 346 345 345 345 347 348 348 349 349 349 345 343 344 346 347 347 347 347 347 347 347 347 347 346 347 347 346 345 344 345 344 346 344 344 343 343 344 344 344 343 344 342
352 350 350 350 351 351 351 351 350 349 349 347 347 348 348 349 349 351 353 353 353 353 353 354 353 353 353 354 353 353 352 350 349 349 349 348 348 348 348 347 346 345 343 343 343 344 345 346 347 347 347 347 346 344 344 346 346 347 348 348 347 347 347 346 346 346 344 344 346 345 346 345 345 345 344 344 343 342 343 342 342 343 343 342 341
349 349 350 350 351 351 351 351 350 350 348 348 348 348 348 349 350 352 353 353 353 353 353 353 353 353 354 353 353 353 353 353 353 352 350 350 349 348 348 348 347 346 345 344 344 345 345 345 345 346 345 346 344 343 345 346 346 348 350 349 347 347 346 346 346 345 344 345 344 345 345 344 344 344 342 342 343 344 343 341 342 340 339 339 339
349 349 349 350 351 351 352 350 348 348 348 347 348 348 349 349 349 352 352 353 353 353 353 353 353 353 353 353 353 353 352 352 351 350 348 347 346 346 345 345 345 345 342 342 343 344 344 344 345 345 347 343 343 344 345 346 347 348 348 348 347 346 345 345 344 344 343 344 344 345 346 343 342 342 344 344 344 342 343 342 343 343 343 342 341
349 349 349 350 350 351 351 350 350 348 348 348 348 348 348 349 350 351 351 352 353 353 353 353 353 353 353 353 353 352 352 351 350 349 349 350 347 346 346 346 346 347 346 345 345 345 344 344 345 344 343 342 343 344 345 346 347 347 347 346 346 346 345 344 344 342 343 343 344 345 344 343 344 344 342 342 341 341 341 341 341 341 342 342 342
348 349 350 350 351 351 351 351 349 348 347 348 348 348 348 349 349 350 352 352 352 353 353 353 353 352 353 353 353 352 352 351 350 351 350 349 348 347 347 347 345 345 345 344 343 344 344 344 344 343 342 343 343 343 345 345 346 347 346 346 345 345 344 344 342 342 342 342 342 344 343 341 343 342 341 341 340 340 340 340 341 340 340 340 341
349 348 350 351 352 351 351 350 348 348 348 347 347 347 348 348 349 350 352 352 352 352 353 353 353 352 353 353 353 352 351 350 349 348 348 347 346 346 345 345 345 343 343 343 343 344 344 344 344 343 343 343 343 343 345 346 345 345 345 345 345 344 343 342 340 341 341 342 343 343 342 344 344 343 343 343 342 341 341 341 340 340 340 339 339
349 349 350 350 350 351 351 350 350 348 348 347 347 347 348 348 349 351 352 352 352 352 352 352 352 352 352 351 351 351 350 348 347 346 346 346 346 346 347 346 343 342 344 344 344 344 343 344 343 343 343 343 343 342 344 345 345 345 344 344 344 343 342 342 343 341 341 341 342 341 342 342 343 343 340 341 341 341 340 338 337 336 337 338 337
349 350 351 350 350 351 352 350 350 349 348 347 347 348 349 349 350 350 352 352 352 352 352 352 352 352 351 351 351 351 351 350 349 348 348 345 345 345 346 346 345 344 345 343 344 343 343 343 344 344 344 344 343 343 344 345 344 344 344 343 343 343 341 340 339 340 340 340 341 340 340 342 342 343 340 342 341 341 339 337 337 337 337 336 336
350 351 350 350 349 350 350 351 349 349 348 347 347 347 349 349 350 350 351 352 352 352 352 352 352 351 351 351 351 351 350 348 347 346 347 347 347 345 344 345 345 345 345 344 342 342 342 343 343 343 344 344 343 342 344 345 344 343 343 343 342 341 341 343 340 339 340 340 341 341 340 341 340 342 338 338 338 339 339 338 338 338 338 338 337
350 351 349 348 349 350 349 349 349 348 347 347 347 347 349 349 350 350 351 352 352 351 351 351 352 351 351 351 351 350 350 349 349 348 345 345 347 347 347 346 346 345 344 344 342 342 343 343 343 343 344 343 342 342 344 344 345 344 343 342 341 341 341 340 339 340 339 339 338 339 341 340 339 341 338 338 338 339 339 338 338 340 340 339 339
350 349 347 347 349 349 350 349 349 349 349 348 347 347 348 349 350 350 350 351 352 351 351 351 351 351 351 350 351 351 350 349 349 347 346 346 344 344 345 346 346 346 346 345 344 343 343 343 344 344 344 343 342 342 344 345 344 344 343 342 341 341 341 341 340 339 339 339 338 339 339 339 338 339 337 338 340 340 337 336 337 336 337 339 339
349 348 348 347 347 348 348 349 349 347 348 347 348 348 349 349 349 349 349 351 352 351 351 351 351 351 351 350 350 350 350 349 348 348 347 347 346 345 344 344 345 346 346 346 346 344 344 343 344 344 344 343 343 343 344 344 344 344 342 342 341 341 340 340 339 338 339 339 339 339 340 338 340 340 339 341 340 338 336 337 337 338 338 338 339
348 348 349 348 349 348 348 347 347 347 347 347 347 348 347 348 348 349 349 349 351 351 350 351 350 350 350 350 349 350 349 349 348 349 348 347 346 347 345 345 344 345 345 345 345 345 345 344 344 344 344 341 341 342 343 344 344 344 343 342 342 342 341 340 338 337 338 337 340 341 340 338 339 341 341 341 339 338 337 336 338 338 338 337 338
345 347 347 347 348 348 346 346 346 346 346 347 347 347 347 347 348 347 348 349 349 349 351 350 350 350 350 349 348 351 351 350 349 349 347 348 347 346 346 345 345 345 345 345 345 345 346 345 345 345 342 339 337 339 342 343 344 344 343 342 342 342 342 341 340 338 338 338 339 339 338 339 341 341 341 339 337 336 336 336 336 334 334 336 337
343 343 346 347 346 346 346 345 344 344 345 346 347 347 347 347 348 348 349 349 349 349 350 351 350 351 349 350 350 349 348 348 349 347 348 347 346 345 346 346 346 345 345 344 345 344 345 345 345 343 340 338 336 340 342 343 343 343 343 342 342 342 342 341 340 338 338 340 340 341 339 340 342 340 339 338 336 336 335 335 334 334 334 337 337
340 342 344 344 345 345 346 344 344 345 345 344 345 346 347 347 348 348 348 349 349 350 350 350 350 349 349 349 348 348 347 347 348 347 347 346 346 346 346 346 346 346 344 345 344 344 344 343 342 340 338 335 342 339 338 339 343 343 343 344 343 342 341 341 341 340 339 340 341 342 341 341 341 340 340 336 335 337 335 335 334 334 334 333 333
340 341 342 344 345 344 344 345 344 344 344 344 344 345 346 347 346 347 347 348 349 348 350 349 348 348 348 348 347 347 346 346 346 346 345 347 346 345 344 345 345 345 343 344 342 342 340 340 339 338 339 341 342 340 336 337 339 344 346 344 342 341 341 341 340 340 341 339 340 341 341 342 342 338 337 336 335 337 337 334 333 333 332 332 333
341 342 342 341 343 345 344 343 344 343 343 343 344 344 344 345 344 345 346 347 347 347 347 347 347 347 347 347 345 345 345 345 346 347 347 347 347 347 348 347 347 346 343 344 344 343 345 344 345 344 344 343 341 341 340 338 340 340 341 342 342 342 341 342 341 340 341 343 343 341 341 342 341 338 338 337 335 335 334 333 333 333 332 333 333
342 340 340 341 342 343 343 343 343 343 343 342 343 343 343 342 342 343 345 345 345 345 345 346 345 345 345 345 344 344 346 346 346 347 347 347 346 346 347 347 347 346 345 345 343 344 344 343 343 343 343 344 342 342 342 340 338 339 340 341 341 342 341 341 341 341 342 343 345 341 342 341 341 339 338 337 335 335 334 333 334 333 332 332 332
338 338 341 341 341 341 343 342 341 341 342 345 344 344 343 343 343 343 342 343 344 344 344 344 344 344 344 345 344 343 344 345 346 347 346 346 345 346 346 347 347 346 346 345 345 345 345 344 342 342 343 343 342 342 341 342 340 337 339 340 341 340 342 342 342 342 343 343 343 341 342 342 341 339 337 337 336 335 335 334 334 333 333 333 333
338 339 340 339 340 340 341 341 340 341 342 344 342 342 342 342 342 343 343 343 342 342 342 345 344 346 345 346 345 344 345 344 345 344 345 346 346 346 348 347 347 346 347 346 344 344 344 344 345 344 342 341 338 340 340 341 341 340 337 339 340 341 341 341 341 342 343 344 343 343 342 342 342 338 338 338 336 335 335 334 334 333 335 333 333
336 338 338 338 339 340 340 340 340 340 341 341 340 341 341 341 343 343 342 344 343 343 344 345 344 346 347 347 348 345 345 345 344 344 346 345 346 346 348 348 347 347 346 345 346 345 345 345 345 344 344 343 342 341 340 341 341 342 339 339 340 341 341 341 340 341 342 342 343 342 342 342 342 339 338 338 337 336 335 334 334 335 335 334 332
337 338 338 338 339 339 339 339 340 340 340 340 339 341 339 339 342 342 343 345 344 344 345 345 346 348 348 347 347 346 345 345 345 346 344 345 345 346 346 346 346 346 347 346 345 345 344 344 345 345 343 343 342 342 341 340 340 341 340 339 340 341 342 340 339 339 340 341 342 343 341 341 341 340 340 340 337 336 335 335 336 335 335 334 333
337 336 337 338 339 339 338 339 340 341 340 338 339 339 341 340 341 343 344 344 345 346 345 345 346 345 346 346 345 345 345 344 345 344 344 344 343 342 342 344 344 345 346 345 346 345 344 343 343 342 343 342 342 343 341 340 339 338 341 339 340 341 341 342 340 339 338 339 340 342 342 341 341 339 340 340 339 337 336 336 336 337 337 335 335
336 336 338 338 338 338 338 339 340 341 340 339 339 338 340 340 342 343 343 344 345 345 345 345 346 345 344 345 345 346 346 346 344 344 343 343 343 342 343 342 342 342 343 342 342 343 342 341 343 343 343 342 342 343 343 342 341 340 341 339 341 341 340 342 341 341 339 339 340 341 341 341 341 340 340 340 339 339 338 337 336 337 336 335 336
337 338 338 338 338 338 339 340 341 342 341 340 339 339 341 341 341 342 343 344 345 345 344 345 345 344 344 345 345 344 345 344 345 343 342 342 341 341 341 341 342 341 341 340 340 341 342 342 341 342 342 342 341 342 342 342 342 342 342 340 342 340 340 341 342 341 341 340 338 339 341 341 343 341 338 339 339 339 338 337 337 337 337 335 333
336 338 339 337 338 339 340 341 341 341 341 341 341 340 341 342 343 344 345 345 346 347 346 346 345 344 345 344 344 344 344 344 342 342 342 341 340 340 340 340 341 339 340 340 339 340 340 340 340 338 338 339 339 341 340 340 341 342 341 342 341 341 341 341 341 340 341 341 340 339 340 342 340 342 340 339 339 338 338 339 338 337 337 336 335
337 339 338 338 339 339 341 340 341 341 342 342 342 341 342 343 344 345 346 347 345 346 348 345 345 345 344 344 343 343 343 342 342 340 341 340 340 339 339 339 339 340 339 340 339 338 339 339 339 338 338 338 338 338 338 339 339 340 340 341 340 339 341 341 341 340 339 341 341 339 340 338 338 340 340 339 338 339 339 339 339 339 338 336 335
338 338 339 339 338 340 342 341 342 342 342 342 343 343 343 346 345 344 345 345 346 345 346 346 346 345 345 345 343 343 343 343 342 341 340 340 340 339 339 339 339 340 340 339 339 338 338 338 338 338 335 336 337 337 338 337 337 338 340 340 340 339 340 341 340 340 341 342 340 339 340 339 339 339 340 339 339 338 339 338 337 337 337 337 335
339 339 339 338 338 341 342 341 340 341 342 342 343 343 344 344 345 344 343 344 344 347 347 346 346 346 346 345 344 343 343 343 343 342 340 339 340 339 340 340 340 339 339 341 339 339 338 337 337 338 337 335 336 335 336 336 336 337 338 338 339 339 338 340 341 340 340 338 339 339 338 337 340 339 341 339 339 339 338 338 337 336 336 338 335
339 340 340 339 338 340 341 342 342 342 343 342 343 343 344 343 344 344 344 345 346 346 347 347 346 345 345 344 343 342 343 343 343 341 340 340 340 340 340 340 339 339 339 339 339 339 338 338 338 338 338 336 335 334 335 335 335 335 336 337 337 337 337 338 339 338 338 338 338 336 336 337 339 339 339 339 339 339 338 337 337 336 336 336 337
339 340 340 340 340 341 342 342 342 343 343 343 343 343 343 343 343 344 345 345 346 346 346 346 344 344 343 343 342 343 343 343 342 341 339 340 340 340 339 339 339 338 338 337 337 338 338 338 337 337 338 337 335 334 334 334 333 333 333 335 336 336 336 337 337 337 336 336 337 336 338 337 337 338 339 339 339 339 338 339 337 335 335 335 336
339 339 339 340 340 341 342 342 341 342 343 342 342 341 342 342 341 343 343 343 344 344 345 343 344 343 343 342 342 343 343 342 341 341 340 340 340 340 339 339 338 337 337 335 335 337 335 335 336 336 336 336 337 335 334 334 333 334 333 334 335 336 335 334 334 335 335 336 336 337 335 336 335 335 338 338 339 339 338 338 338 336 335 334 334
339 339 339 340 341 340 340 339 341 341 341 340 340 340 339 340 341 341 341 344 344 342 342 343 345 344 343 343 343 343 343 342 342 342 341 340 340 340 338 338 338 337 337 335 336 335 335 335 334 335 334 333 334 336 335 334 330 329 332 332 333 335 335 334 334 334 335 335 336 335 335 335 334 334 336 337 337 336 338 338 338 337 336 334 334
337 339 339 340 341 341 340 340 341 341 342 342 342 343 343 343 343 342 343 343 342 341 341 344 345 345 345 343 343 343 342 342 341 341 340 340 339 339 338 338 338 337 335 336 336 336 335 334 334 332 335 333 331 335 335 333 327 325 325 326 329 332 333 334 333 333 334 334 335 335 335 334 335 336 334 334 335 336 336 337 338 337 336 335 333
338 339 340 340 341 341 341 341 341 341 342 343 343 343 343 344 344 343 343 341 343 344 343 343 343 343 344 343 342 341 341 340 340 339 338 338 337 337 336 337 336 335 335 335 337 336 336 335 335 334 331 334 333 335 335 334 327 330 330 325 323 323 328 329 332 333 333 334 334 333 334 334 334 336 335 334 333 333 334 336 336 337 337 336 334
336 337 338 339 340 340 341 340 340 342 343 345 344 345 344 343 343 344 343 342 340 341 342 342 341 341 339 339 340 340 338 338 338 337 337 336 336 335 335 334 334 335 334 333 335 334 335 336 337 335 333 329 330 333 338 336 332 325 319 320 324 321 318 323 327 331 333 333 333 333 334 333 334 334 336 332 331 333 335 336 334 336 336 336 335
335 335 337 338 339 339 340 341 340 341 343 344 345 344 343 342 341 341 342 341 340 339 338 336 338 338 338 337 337 337 337 336 336 336 335 335 335 334 334 333 333 334 333 332 333 333 333 334 334 334 332 331 328 331 334 337 334 332 325 321 319 316 319 324 326 327 332 331 332 333 334 333 333 334 334 334 334 333 333 334 335 336 336 336 335
331 332 334 335 338 338 338 340 340 341 342 343 344 344 343 342 339 336 335 335 334 335 333 333 335 335 334 336 336 336 335 335 334 334 333 333 333 332 333 332 332 332 332 332 332 333 332 333 332 332 332 333 331 329 328 334 336 334 332 330 328 324 324 325 324 319 333 332 332 332 333 334 334 333 333 333 332 332 332 332 334 334 333 335 334
328 331 333 334 337 337 338 340 341 342 342 343 343 343 342 341 341 339 338 337 333 333 334 335 335 335 335 334 334 334 333 332 332 331 331 331 331 331 330 330 330 330 331 332 331 331 332 332 332 332 331 331 332 327 327 329 333 335 334 332 328 327 328 325 321 324 320 327 330 330 331 333 333 333 332 333 333 332 333 333 332 333 333 335 334
328 330 332 334 336 337 338 339 340 341 342 343 343 345 341 339 338 338 337 336 335 332 333 334 335 334 334 334 333 331 331 330 330 330 330 330 331 330 330 330 330 330 330 330 330 331 331 332 333 333 332 332 332 330 327 328 327 328 334 329 326 326 326 328 327 324 322 320 322 329 331 333 333 332 332 333 332 331 330 330 331 332 335 334 336
330 330 331 333 335 336 337 338 338 339 340 341 340 339 339 339 338 337 334 334 334 334 334 333 333 334 332 331 331 330 330 330 329 329 330 330 330 331 330 330 330 331 330 330 331 331 331 331 330 330 330 331 332 331 330 329 330 328 329 329 329 324 324 324 327 324 320 320 320 323 325 330 332 332 332 333 334 333 331 332 331 331 330 333 335
331 332 332 333 335 336 336 336 335 335 336 336 337 337 337 337 335 335 333 332 333 333 333 332 331 331 330 329 329 328 328 330 330 330 330 330 330 331 331 331 331 331 332 331 332 332 331 331 331 331 332 331 332 331 330 330 329 331 330 328 325 326 324 321 322 321 322 323 320 322 326 328 325 328 333 332 333 333 333 332 331 331 331 332 333
331 332 332 333 333 334 334 333 332 333 334 334 335 335 335 335 334 334 333 332 331 331 330 328 328 329 328 327 327 327 329 328 329 329 329 329 330 331 331 331 331 331 332 331 331 331 332 332 332 332 331 333 333 332 332 332 331 328 329 329 326 326 324 322 321 322 322 320 320 320 324 326 327 328 331 332 332 333 335 333 331 330 330 331 332
Wind_Speed
13 15 13 15 12 14 13 15 16 14 13 14 14 14 15 15 15 15 13 13 13 13 14 14 15 15 15 14 14 14 14 13 13 13 13 14 15 15 14 15 14 15 16 16 16 17 16 16 17 17 17 17 18 19 19 18 17 16 16 15 15 15 14 14 14 13 13 13 13 13 12 13 14 15 16 15 14 14 14 13 11 10 10 12 14
16 15 13 13 13 14 14 15 16 15 14 14 14 13 14 15 15 14 14 14 13 13 13 14 14 14 13 14 14 14 13 13 12 13 14 14 14 14 14 14 14 15 16 16 16 16 16 16 16 17 17 17 18 19 19 18 18 17 16 15 14 14 14 13 13 13 12 12 13 13 14 14 13 15 16 14 14 14 13 13 11 9 10 13 14
15 14 12 14 16 14 14 15 16 15 15 14 14 14 14 15 14 14 14 13 13 12 13 13 13 13 13 14 14 13 13 13 13 13 13 14 15 15 14 14 14 15 16 16 16 15 15 15 16 17 17 17 17 18 17 16 16 15 16 14 14 13 12 12 12 12 12 13 12 12 14 14 13 14 15 14 13 14 13 13 12 10 11 13 14
17 13 12 14 15 13 14 16 16 16 16 15 14 14 14 14 14 13 13 13 12 12 12 13 13 13 13 14 13 13 13 13 13 13 13 14 15 15 14 14 14 15 15 15 15 15 14 14 15 15 16 16 16 15 15 14 13 13 13 13 13 13 13 12 12 12 12 11 9 7 7 9 11 13 15 14 13 13 13 13 14 15 14 13 15
16 14 12 12 13 14 14 16 16 16 16 15 14 15 14 14 13 12 12 12 12 12 12 12 12 13 13 13 13 14 14 13 12 13 13 13 13 13 13 13 13 14 14 14 14 14 13 14 14 14 15 15 14 14 13 12 12 11 10 10 11 11 12 12 12 12 11 9 7 5 7 8 9 12 13 13 12 12 12 12 13 13 13 14 14
15 13 12 11 11 13 15 16 16 16 16 15 15 15 14 14 14 13 12 11 12 13 13 13 13 13 13 13 14 13 14 14 14 13 13 13 12 13 13 12 11 11 12 12 12 13 13 13 14 14 14 13 12 12 11 11 10 9 9 9 10 11 11 11 11 11 10 7 5 6 6 7 7 8 12 12 11 10 11 12 12 12 12 12 13
15 12 11 11 10 12 14 16 17 17 16 15 15 15 14 14 14 13 12 12 13 13 13 13 13 13 13 14 13 14 15 15 14 13 13 12 12 12 12 11 11 11 11 11 11 11 12 13 12 13 12 12 11 11 11 11 9 8 7 8 9 11 11 10 10 9 6 4 5 5 6 7 7 6 11 10 9 10 10 10 10 11 11 10 9
12 11 11 10 9 13 15 17 18 17 16 15 15 15 14 14 14 13 13 13 13 13 13 12 13 13 13 13 13 14 14 14 13 12 11 11 11 11 11 11 11 11 11 11 10 11 11 12 12 11 11 10 10 11 11 10 9 7 5 8 11 11 11 10 9 8 5 6 5 5 5 7 8 7 10 9 9 9 9 9 9 10 10 10 8
12 12 11 10 10 16 15 16 16 16 16 15 15 15 14 13 13 12 13 13 13 13 12 12 13 13 13 13 14 13 14 13 13 13 12 11 11 11 11 11 11 11 10 11 10 8 9 10 11 10 10 9 10 10 10 9 9 8 8 12 12 11 11 10 9 7 5 5 6 5 5 6 5 6 8 9 9 9 8 7 10 10 10 9 9
13 11 11 9 10 15 15 16 16 16 15 15 14 15 13 13 14 13 13 13 13 12 12 13 13 13 13 14 13 14 14 14 13 12 10 10 10 9 8 9 9 10 9 10 10 9 9 9 9 9 9 9 9 10 9 9 9 11 13 14 12 11 11 10 8 5 5 5 6 6 6 5 5 5 9 9 10 10 9 11 11 9 9 10 10
13 11 11 10 13 14 14 14 16 16 15 15 15 14 14 13 13 13 13 13 13 12 11 11 12 12 13 13 14 13 13 12 11 10 10 9 9 8 8 7 9 10 11 10 10 10 10 9 9 8 8 8 9 9 9 9 10 11 12 12 11 10 10 8 5 5 5 5 5 6 7 3 5 5 8 8 8 8 9 9 9 8 9 10 10
13 11 11 10 15 14 14 13 15 15 15 15 14 14 13 12 13 13 12 12 13 12 12 10 10 13 13 13 13 14 13 12 12 11 10 9 9 9 11 12 11 11 10 9 9 9 10 10 9 8 8 9 9 9 9 9 10 11 11 10 10 9 8 5 3 5 5 6 6 5 5 4 6 7 8 8 7 7 7 7 7 7 8 8 8
13 12 12 11 12 14 13 13 14 15 14 14 14 14 13 13 12 12 11 10 10 12 12 10 11 11 12 13 14 14 13 12 11 10 9 8 9 9 9 10 10 10 9 9 9 9 9 10 9 8 9 9 9 9 9 9 10 10 10 10 10 9 8 5 4 5 5 6 5 5 5 4 6 7 7 8 8 8 8 8 7 6 7 7 7
13 12 12 11 10 15 12 13 12 14 14 13 12 12 12 12 12 11 10 10 11 10 10 11 11 12 13 13 13 13 12 11 10 9 8 8 9 8 9 9 9 10 10 9 9 9 9 10 9 9 9 9 9 8 8 9 10 10 9 10 9 9 9 4 4 5 5 5 4 5 5 4 6 6 5 7 7 7 8 7 6 5 6 6 6
15 14 13 12 12 12 15 13 12 12 12 12 12 11 9 9 10 10 10 11 11 10 12 11 11 13 13 12 13 13 12 12 11 9 8 8 7 8 9 10 10 10 10 10 9 8 9 9 8 8 8 8 8 8 8 8 9 9 9 9 9 9 6 4 3 4 4 4 4 5 5 4 5 3 6 7 7 7 7 7 7 6 6 6 5
14 14 13 12 12 11 10 12 12 12 12 12 12 12 9 10 10 10 11 11 11 11 11 11 12 12 12 12 13 13 11 11 10 9 8 7 7 7 8 8 9 9 9 10 9 8 7 6 7 7 7 7 7 7 7 8 8 9 9 8 8 7 4 2 3 3 3 3 4 3 4 5 5 5 5 5 5 6 6 5 5 6 6 5 5
13 13 13 13 13 10 9 10 11 13 11 11 12 12 10 10 10 9 11 11 11 11 11 12 12 12 12 12 12 12 11 11 10 9 8 7 6 6 7 8 8 8 9 10 9 8 8 7 7 6 6 6 6 6 7 8 8 8 8 8 8 7 6 3 3 3 3 3 3 3 3 4 5 4 5 5 6 6 6 5 5 6 6 5 6
13 13 13 12 12 11 10 9 10 9 9 11 12 12 11 10 10 9 10 9 11 11 11 10 11 11 11 11 12 12 11 12 10 8 8 7 6 5 5 6 7 8 9 9 9 8 7 8 8 7 7 6 6 5 6 6 7 9 8 7 8 7 6 4 3 3 4 4 3 3 2 5 7 5 5 6 7 7 5 5 4 5 5 5 5
12 12 12 12 11 10 10 9 9 8 9 8 8 11 13 11 11 10 11 10 9 12 12 10 11 11 10 10 10 11 11 10 9 8 8 6 6 5 4 5 6 7 8 8 8 8 7 7 8 8 8 7 5 4 5 6 6 9 10 9 9 8 7 5 3 3 4 3 3 3 3 6 2 4 6 7 7 6 5 5 4 4 5 5 4
11 11 11 10 10 10 9 8 8 8 8 8 9 9 11 11 11 11 11 11 10 11 11 11 10 10 10 9 8 8 8 8 8 7 7 6 4 3 4 3 4 5 6 7 7 7 7 7 8 8 9 7 5 4 4 5 7 8 9 10 9 10 6 3 3 3 3 3 3 3 5 5 4 6 6 7 6 5 5 5 5 6 4 5 5
9 11 10 10 10 9 9 8 8 9 9 9 8 9 10 12 11 11 11 11 11 10 10 10 10 10 9 9 7 5 5 5 4 4 4 3 3 3 3 3 3 4 5 6 6 6 7 6 7 8 9 6 4 3 4 4 6 7 8 9 10 6 4 3 3 3 3 3 4 3 6 5 7 7 7 6 4 4 4 4 5 4 4 4 3
10 10 10 9 10 8 9 8 8 9 9 7 7 7 8 8 8 9 9 9 10 9 8 7 7 7 8 6 4 4 3 3 3 3 2 2 3 3 1 3 2 4 4 5 6 5 6 7 8 9 7 5 2 2 3 4 5 8 8 9 7 4 4 4 4 3 3 3 4 5 8 8 8 7 6 6 4 4 4 5 5 4 4 5 5
11 10 9 10 9 8 8 8 9 9 9 8 7 7 8 7 7 8 7 7 7 7 6 6 5 5 4 4 3 3 3 2 2 2 2 2 3 5 4 4 3 4 5 5 6 5 6 6 6 6 5 3 1 2 2 3 4 8 8 7 4 4 4 4 4 3 4 3 4 7 8 8 9 7 7 5 4 6 5 6 6 5 3 4 4
12 10 10 8 9 8 9 8 9 9 8 7 7 7 7 6 6 6 6 6 6 5 5 4 4 4 3 2 2 2 2 2 2 3 3 2 2 1 3 3 3 3 6 3 3 3 3 2 4 2 3 1 1 1 2 2 3 4 4 4 4 4 5 4 4 4 3 4 4 9 8 9 10 6 5 5 5 8 8 6 5 5 5 3 4
9 9 8 9 9 8 8 9 9 8 8 7 7 6 6 6 5 5 5 4 5 4 3 3 3 3 2 2 2 1 1 1 1 1 2 2 2 3 1 2 3 3 2 3 3 2 2 2 1 0 1 1 1 0 1 2 2 3 3 4 4 5 5 5 4 4 4 4 4 8 9 10 10 7 6 6 5 7 6 6 5 5 5 5 4
10 9 9 9 9 8 8 8 8 8 8 7 7 6 6 6 6 5 5 5 4 4 3 3 2 2 1 1 1 1 0 0 1 2 2 2 3 3 2 2 2 2 1 3 3 2 2 2 2 2 1 1 0 0 1 2 2 2 2 3 4 5 5 5 5 5 4 4 5 10 9 10 9 8 7 6 6 7 8 6 6 5 4 4 4
11 10 8 8 8 8 8 8 8 8 8 7 7 6 6 6 6 5 5 4 4 4 3 2 2 2 1 1 1 1 0 1 1 2 2 2 3 3 3 3 3 3 2 3 3 2 1 1 1 2 1 2 2 1 2 2 2 3 3 3 4 5 5 5 5 5 5 5 5 11 10 9 10 9 8 7 7 7 9 7 6 6 6 7 6
10 10 8 8 8 9 8 9 8 8 7 7 7 6 6 6 6 6 4 4 4 3 3 2 2 1 1 1 1 1 1 1 2 3 4 4 4 4 4 3 3 3 3 3 4 3 2 1 1 1 2 2 3 3 2 2 3 3 4 4 5 5 5 5 5 5 5 5 6 9 10 9 9 9 9 9 8 8 8 8 7 6 9 7 8
10 9 8 8 8 8 9 9 9 9 8 7 7 6 6 6 6 5 5 5 4 3 3 2 2 1 1 1 1 1 1 1 2 3 3 4 4 4 3 3 3 3 3 4 3 4 3 2 2 2 2 2 2 3 2 2 3 4 4 5 5 5 6 5 5 5 6 5 6 7 12 11 10 10 12 10 8 8 8 9 7 8 8 9 8
10 9 9 8 8 8 9 9 9 8 8 7 6 6 6 6 5 5 4 5 4 3 3 2 2 2 1 1 1 1 2 3 3 2 4 4 3 4 4 4 5 4 4 5 3 3 4 4 3 3 3 3 3 2 3 3 4 4 4 5 5 6 5 6 5 5 5 5 6 6 11 11 10 11 11 10 10 9 9 9 10 8 8 8 9
10 10 9 8 8 9 8 9 8 8 7 7 6 6 6 6 5 4 4 4 4 3 3 2 2 2 2 1 1 2 2 3 3 4 3 3 3 3 4 4 5 5 5 5 4 4 5 5 5 5 5 5 4 3 4 4 4 5 5 5 5 6 6 6 6 6 6 6 6 7 9 13 12 11 11 9 10 12 10 9 11 10 10 9 9
10 11 9 8 9 9 9 9 8 8 7 6 6 5 5 5 5 4 4 3 3 2 2 2 2 2 2 2 2 3 3 3 4 4 4 4 4 4 3 3 4 4 5 5 5 5 4 5 6 5 6 6 6 4 4 5 5 5 5 6 6 6 6 6 6 7 7 7 6 6 7 9 13 12 11 10 11 10 11 11 9 11 10 10 12
8 10 9 9 10 10 8 9 9 8 7 7 6 5 5 5 5 4 4 3 3 3 2 2 2 2 2 3 3 3 3 3 4 4 5 5 4 4 4 4 4 4 4 5 6 5 4 4 4 5 5 5 6 7 5 5 6 6 5 5 5 6 6 6 5 6 7 7 6 7 7 8 8 12 12 11 10 9 11 12 11 12 12 11 9
9 9 9 10 9 7 7 6 7 7 7 6 6 5 5 5 5 4 4 4 3 2 2 2 2 2 3 3 3 3 3 3 4 4 4 5 5 5 5 5 4 5 5 5 5 5 5 5 4 4 6 6 6 6 6 7 6 5 5 5 5 5 4 5 5 5 6 7 6 7 7 7 8 8 9 14 12 10 10 11 13 13 13 12 11
9 9 10 10 10 8 6 6 7 7 7 6 6 6 6 5 5 4 4 3 3 2 2 2 3 3 3 3 2 2 2 3 3 3 4 4 4 4 4 4 4 4 4 4 5 6 5 5 4 4 5 6 6 6 7 7 7 8 7 6 5 5 4 4 4 5 5 6 6 6 7 6 6 7 7 7 12 12 11 13 11 10 13 12 12
10 10 10 9 9 9 8 7 7 7 6 6 6 6 6 4 4 4 3 3 2 1 2 2 2 2 2 2 2 2 3 3 3 3 3 4 4 4 4 4 4 4 5 5 5 5 4 5 5 5 6 7 7 6 5 7 7 8 7 7 7 6 5 4 5 6 5 5 6 6 6 7 8 8 8 7 7 10 13 13 12 9 10 13 11
10 10 10 9 9 8 8 8 8 8 7 7 6 6 5 4 4 3 3 3 2 1 1 1 1 2 2 3 3 3 4 3 3 3 3 3 3 4 4 4 4 5 5 5 5 4 5 5 5 6 6 6 6 8 7 7 7 8 8 8 7 7 8 7 6 5 5 6 6 6 6 8 8 9 8 8 8 7 11 12 11 9 8 8 12
10 9 9 9 9 9 8 8 8 7 7 6 6 5 4 4 3 3 4 2 1 0 0 1 2 2 3 3 3 3 3 3 3 2 3 3 4 4 4 5 5 5 5 5 5 6 6 6 6 5 5 6 6 7 8 8 7 7 8 8 8 7 9 8 7 7 6 6 6 8 7 8 8 9 8 8 8 7 8 11 11 10 10 8 11
9 9 9 9 8 8 7 8 8 7 7 6 6 5 5 4 3 3 2 1 0 1 1 1 1 2 2 3 3 2 3 3 3 3 3 4 4 4 4 5 5 5 5 6 6 6 6 7 7 7 6 6 7 7 7 7 8 8 9 9 8 8 8 9 9 8 8 9 9 9 7 8 7 7 9 9 8 8 9 8 9 11 11 11 10
9 9 9 8 9 8 7 8 8 7 7 7 6 5 4 4 4 2 2 0 1 1 1 2 2 2 2 2 2 3 3 3 3 3 4 4 4 4 4 5 5 5 6 6 6 5 7 8 9 9 9 7 7 6 7 7 8 9 10 10 9 8 9 8 9 10 9 10 10 8 9 10 11 11 9 8 8 9 10 10 9 9 9 11 11
8 9 9 8 8 9 8 8 8 8 7 7 6 5 4 4 2 1 1 1 0 1 2 1 1 2 2 2 3 3 3 3 3 3 3 3 4 4 4 4 4 5 5 6 7 8 8 8 8 8 10 11 9 7 8 7 8 8 7 9 10 10 9 9 10 9 10 9 9 9 9 9 10 10 8 7 8 9 9 10 10 9 9 8 10
8 9 8 8 8 9 8 8 7 7 7 7 6 5 4 3 3 3 1 1 1 2 2 2 3 3 3 2 2 2 2 2 2 2 3 3 4 4 4 4 4 4 5 6 7 7 8 7 7 7 6 7 8 6 6 4 6 7 8 8 8 7 9 9 9 10 10 10 9 9 9 10 10 10 8 6 5 7 10 10 10 10 10 9 9
9 8 7 7 8 7 7 7 6 7 6 6 6 5 3 2 2 2 2 3 2 2 3 3 3 3 3 3 2 3 3 3 3 3 3 3 3 4 4 4 5 4 5 6 6 7 7 8 8 7 7 5 7 6 7 7 8 6 8 8 9 8 6 7 9 11 10 10 9 11 10 10 12 10 9 7 7 8 10 10 11 11 11 11 10
7 7 6 7 6 6 6 6 6 6 6 6 5 4 4 4 3 3 2 3 3 3 3 3 3 3 4 4 4 4 4 4 4 3 2 3 3 4 4 4 5 5 5 6 6 8 8 8 7 7 7 9 7 6 7 8 8 8 6 6 3 4 10 8 7 7 10 11 11 11 10 11 11 11 9 11 11 10 8 6 11 12 12 11 11
6 6 5 5 3 5 5 6 5 5 5 5 5 5 5 5 4 4 4 4 3 4 4 3 3 3 4 5 5 5 5 5 4 4 3 3 3 3 4 4 5 5 5 6 7 8 9 9 10 9 8 7 10 9 9 7 9 9 9 5 4 4 9 8 6 7 6 8 11 12 11 12 11 10 9 11 11 11 10 11 11 8 8 12 13
6 4 5 5 5 4 5 4 4 4 5 5 5 5 4 4 5 5 5 5 5 3 3 4 3 3 4 4 5 5 6 5 5 5 5 5 5 5 5 5 5 5 5 6 6 7 8 9 9 9 11 10 9 8 10 7 8 9 11 10 5 8 6 1 2 5 4 6 7 9 12 13 12 11 11 11 12 12 12 12 11 12 13 12 14
5 5 6 6 6 6 6 6 5 6 6 6 5 5 4 4 5 4 3 4 5 4 4 3 2 2 3 4 4 5 6 6 6 6 6 5 5 5 5 5 5 5 5 6 7 8 9 9 9 9 10 9 9 10 11 10 8 8 9 9 11 11 10 8 9 6 11 6 7 8 10 12 13 13 13 11 12 10 10 8 9 13 11 8 13
5 6 5 5 7 8 8 7 7 5 4 4 4 3 6 6 6 5 4 4 5 6 5 3 2 3 4 4 4 5 6 6 6 7 7 7 6 6 6 5 6 5 6 6 6 7 8 8 9 11 10 9 9 9 11 10 8 7 3 6 4 7 14 11 10 10 9 10 9 7 8 10 11 12 13 13 13 9 12 10 9 10 9 11 11
7 7 6 6 7 9 9 8 7 5 5 5 5 4 4 5 5 5 5 4 4 4 3 2 3 3 4 4 5 5 6 7 7 8 8 8 7 6 6 7 7 7 6 6 6 7 8 8 8 8 10 9 8 9 10 10 8 10 8 7 5 6 11 13 9 8 8 9 11 11 10 8 9 11 12 12 11 10 11 10 10 12 12 10 11
8 9 9 8 7 7 8 8 7 5 5 6 6 7 6 5 6 5 6 4 3 3 3 4 3 3 5 6 6 7 7 7 7 8 9 9 8 7 8 9 8 7 7 7 8 8 9 9 9 10 10 10 7 9 9 9 9 8 8 8 8 6 4 5 5 10 10 12 13 11 8 8 10 10 10 11 12 13 13 11 11 11 12 11 11
8 9 10 8 7 7 8 9 7 6 6 6 7 7 6 5 5 5 5 5 5 4 4 4 4 5 6 8 8 7 7 8 9 8 8 9 9 9 9 9 8 8 8 9 9 9 10 10 10 12 11 9 7 9 9 9 8 9 9 7 7 8 7 5 5 6 7 8 8 11 11 11 11 10 11 12 10 13 12 11 11 10 11 10 9
Wind_Direction
153 144 140 130 140 142 142 133 124 125 121 119 115 112 114 115 114 114 112 111 112 112 114 114 115 115 115 113 112 111 110 111 110 111 111 107 106 106 106 104 104 104 100 99 98 96 92 90 89 91 93 95 93 93 87 85 84 82 78 74 73 74 76 77 79 80 82 82 87 88 90 88 86 86 83 79 77 73 72 70 70 78 77 75 71
148 144 138 135 136 142 140 131 124 126 123 119 117 112 116 117 117 117 116 116 116 116 114 115 115 114 112 113 112 111 110 108 107 107 106 105 105 104 102 101 100 100 100 99 96 93 91 91 93 94 95 97 99 93 86 83 82 81 81 78 77 78 80 78 79 82 84 85 90 95 91 86 83 87 85 82 79 77 74 70 65 77 76 72 71
137 140 137 133 139 141 137 128 124 126 125 120 116 114 115 118 118 116 116 117 116 115 115 115 116 116 116 114 113 109 106 104 103 101 100 103 102 102 102 102 102 99 99 99 96 93 93 96 95 96 98 100 96 88 80 79 77 73 75 79 80 81 82 82 82 80 79 79 81 89 89 86 85 86 86 82 80 78 77 77 75 76 76 74 73
136 138 133 135 138 139 137 125 123 126 125 121 116 115 116 117 117 115 116 116 116 116 117 118 119 118 116 113 111 109 106 103 101 102 102 99 100 99 101 100 100 101 102 101 99 96 96 99 97 97 99 95 93 85 81 74 68 64 68 74 80 81 82 82 80 80 81 79 82 96 99 96 90 82 85 85 83 81 82 81 78 75 78 74 70
133 135 131 138 143 140 134 124 123 125 123 121 120 119 118 117 117 117 117 115 117 116 119 121 119 116 114 113 111 108 105 103 100 96 96 94 91 90 90 93 100 102 103 104 102 99 99 101 99 100 98 95 90 86 80 74 64 59 61 75 84 85 84 84 85 83 76 73 73 88 87 90 86 80 83 83 82 80 81 82 81 80 78 73 69
133 131 135 138 141 141 134 124 122 124 125 123 122 122 121 121 119 119 117 116 117 119 121 119 117 116 114 112 109 106 104 102 98 91 86 86 87 90 93 95 96 101 106 106 105 104 106 108 106 102 100 95 89 82 78 71 62 59 65 80 93 92 89 85 83 82 82 83 97 86 87 88 86 85 84 83 79 76 77 77 78 77 74 75 79
129 131 137 139 140 141 134 123 120 123 125 125 125 124 123 122 122 120 118 116 118 118 119 118 116 113 112 109 107 105 102 95 91 91 89 87 89 94 96 96 95 96 99 106 111 111 112 109 106 102 98 90 81 77 70 63 59 59 70 95 110 103 97 94 89 87 92 117 85 89 84 82 86 85 81 80 78 75 75 73 74 76 78 73 67
128 135 139 139 139 140 131 121 120 122 126 128 127 126 124 124 124 121 119 118 115 118 118 116 115 114 110 106 105 102 97 94 97 96 93 92 93 95 95 94 94 92 91 99 113 114 118 115 110 105 98 89 78 72 64 60 59 59 77 113 120 112 105 99 94 86 82 87 84 78 81 79 81 83 77 77 74 76 77 71 72 77 76 73 79
130 134 137 137 137 137 127 121 120 123 128 130 129 127 126 127 125 120 118 116 116 118 116 116 115 113 110 110 103 103 99 96 89 83 84 84 84 86 91 95 95 92 91 94 97 109 117 119 113 104 101 85 78 72 65 63 68 68 86 119 121 113 109 104 102 113 106 90 89 86 89 91 83 82 82 80 75 70 66 88 103 87 76 72 68
129 133 139 140 138 133 125 122 122 126 130 132 131 129 128 130 124 118 115 114 116 115 117 117 115 115 114 108 109 103 92 88 83 84 84 85 84 88 94 99 100 101 99 97 99 107 119 117 112 103 89 85 80 74 69 73 83 89 101 113 117 112 108 104 101 88 93 103 97 82 60 30 80 78 83 82 84 77 73 54 51 56 71 81 77
130 136 142 137 135 127 122 124 124 126 131 134 133 131 129 128 123 118 115 113 113 113 113 115 117 117 111 106 100 95 93 93 92 89 84 86 89 91 93 94 95 103 99 94 99 108 122 109 100 99 97 92 83 75 72 81 96 101 108 114 114 111 109 114 137 99 97 101 94 96 97 81 70 77 91 88 87 84 75 69 71 75 74 71 71
132 137 140 135 131 127 126 127 126 129 133 136 135 134 132 129 126 121 116 115 114 112 111 116 121 116 108 105 101 96 92 89 86 81 79 79 81 81 80 77 77 79 86 91 97 106 112 114 110 108 104 92 85 80 82 94 104 107 112 113 109 110 112 117 107 105 107 102 96 88 84 84 81 88 95 94 94 92 82 78 75 71 69 70 73
135 139 138 135 135 128 130 130 132 131 134 137 138 138 135 133 127 124 117 113 112 116 114 109 110 110 107 103 98 95 91 89 86 83 82 81 80 77 78 82 83 88 95 98 104 112 116 117 116 112 103 95 86 84 93 103 112 112 113 114 116 114 117 129 116 114 115 113 113 113 101 86 80 81 90 95 93 89 85 80 78 78 70 68 67
135 140 139 137 134 134 131 132 131 133 135 139 140 139 139 134 128 115 111 112 114 113 110 113 114 112 109 105 102 101 100 99 96 94 91 91 87 89 90 93 96 93 93 93 100 110 119 121 119 115 108 101 91 87 92 105 117 120 120 119 122 122 124 127 110 119 122 121 115 110 103 104 95 110 101 95 90 84 79 77 76 72 74 72 69
139 141 139 139 138 138 133 132 131 134 135 136 138 138 132 123 117 115 111 113 117 116 118 119 118 115 112 111 108 104 103 100 97 91 86 86 88 85 85 83 80 79 80 81 86 101 116 115 108 109 107 102 98 95 99 108 122 127 127 129 129 135 160 134 140 123 127 128 124 132 118 106 104 112 98 94 90 84 86 84 84 90 87 80 76
139 139 139 140 140 138 140 134 132 134 135 136 138 137 125 123 123 118 121 120 117 120 122 121 119 118 118 115 109 108 110 106 103 103 97 88 84 81 84 90 89 88 88 90 95 102 106 102 106 106 103 103 103 101 103 115 127 135 136 134 137 142 154 148 129 132 131 138 131 123 120 102 112 130 132 123 113 110 102 97 98 93 96 91 88
139 140 140 141 142 141 139 143 135 135 133 136 137 137 127 128 123 125 128 122 119 122 121 122 120 121 121 117 113 112 112 109 108 109 103 95 86 82 82 86 89 91 91 89 89 91 92 95 94 91 93 97 101 106 112 129 141 145 142 142 142 144 145 183 126 139 137 130 137 138 128 129 124 107 126 132 134 124 115 106 97 98 97 106 100
141 143 143 144 146 144 144 141 140 140 136 134 134 134 130 127 123 125 126 125 125 121 120 118 123 124 127 125 121 119 116 112 113 110 109 107 101 91 86 85 89 92 93 90 88 88 86 81 77 77 81 87 98 109 116 131 148 155 150 146 150 146 151 200 140 142 142 149 147 140 138 104 139 151 144 129 128 134 124 114 106 103 96 89 99
142 144 145 147 147 145 144 142 140 140 139 136 138 139 133 130 127 127 126 127 126 126 125 126 130 131 129 127 126 122 119 116 117 116 114 117 107 104 79 76 82 84 86 89 92 91 87 83 79 75 77 83 85 92 109 127 152 160 156 153 154 155 157 194 166 158 149 171 154 156 128 138 219 168 147 133 139 132 130 129 126 125 120 106 97
142 147 146 149 148 148 144 141 141 141 139 137 137 137 134 134 133 131 124 123 127 127 127 131 132 132 126 123 119 124 121 112 115 120 111 110 115 68 99 66 67 79 80 83 86 88 90 84 81 84 83 79 70 68 81 112 143 160 160 157 158 158 175 206 180 177 171 154 173 163 124 183 173 160 155 148 140 133 135 144 138 140 133 128 115
149 150 147 152 149 150 144 142 141 137 136 135 138 137 135 137 131 131 125 123 123 128 132 132 136 126 123 113 116 115 105 99 97 68 99 80 110 117 99 93 55 60 64 73 78 74 76 77 80 86 92 87 79 65 55 97 130 149 157 164 163 181 185 189 186 188 201 166 183 160 147 173 169 171 164 163 161 154 155 158 173 170 158 138 123
151 150 154 149 150 152 145 139 136 136 135 135 139 141 139 141 135 139 142 131 128 129 134 135 135 125 113 126 112 99 94 99 75 62 35 46 86 52 44 92 76 34 47 47 55 60 65 62 65 75 83 87 59 145 120 112 138 152 162 166 188 201 183 192 197 190 198 199 196 141 173 177 182 184 178 182 187 166 176 193 187 177 179 148 146
156 153 154 155 159 154 147 140 136 138 138 139 143 141 139 137 137 142 139 141 141 142 142 137 133 110 112 101 107 104 87 66 56 2 360 77 39 18 348 18 38 35 24 38 38 35 47 52 57 65 74 104 174 129 150 143 149 163 167 184 211 203 189 202 205 207 199 193 221 148 190 188 195 190 206 206 220 175 188 193 194 189 199 197 172
158 160 155 156 160 156 147 139 139 139 142 143 146 146 145 144 144 145 144 145 144 153 144 136 121 114 119 113 99 85 76 49 24 355 23 31 63 126 3 349 46 36 18 347 9 35 3 85 61 68 149 140 96 186 182 156 155 177 187 195 203 195 200 200 218 215 214 188 222 164 200 204 219 227 224 237 225 171 202 193 196 205 199 210 198
156 155 153 160 156 147 142 143 142 143 145 147 149 152 149 147 149 147 142 139 140 141 137 126 109 113 107 99 81 68 56 41 11 30 20 13 349 338 301 341 352 358 1 2 345 349 334 354 16 312 25 69 69 25 276 184 164 178 195 207 202 198 205 211 222 224 214 201 207 180 207 211 219 234 244 233 220 201 214 214 208 207 200 203 202
148 156 161 157 154 147 146 142 144 146 149 149 150 144 144 146 148 149 150 151 149 140 134 134 131 126 125 143 153 165 223 104 104 29 17 9 351 355 345 340 311 318 329 344 355 339 335 331 334 342 350 343 96 96 284 275 218 182 187 205 216 211 212 215 217 221 223 217 201 195 218 217 228 233 231 229 211 213 218 216 213 202 180 174 194
163 162 155 155 153 150 148 146 146 149 150 149 149 146 147 142 142 151 154 156 154 155 148 148 149 145 143 147 169 205 236 306 331 353 354 346 351 347 353 345 330 324 322 313 326 321 312 326 333 331 324 291 286 203 193 215 259 243 204 202 216 224 224 222 220 223 225 221 214 197 220 227 222 224 222 222 213 221 226 225 217 204 184 198 204
164 160 155 159 152 150 147 149 149 154 154 151 151 149 144 143 144 148 158 154 161 156 155 149 151 165 182 167 122 321 315 311 328 326 343 337 342 339 331 324 316 320 319 304 318 330 321 312 303 295 286 296 296 283 257 195 202 239 240 218 210 223 229 229 228 230 228 225 228 200 222 227 226 215 216 223 219 227 235 232 225 216 190 210 215
165 159 162 162 159 151 150 152 154 157 157 155 158 150 149 151 151 153 152 159 152 156 154 156 201 195 217 254 209 226 255 275 303 318 313 313 313 314 306 298 291 294 300 300 298 307 307 307 312 312 309 298 283 278 269 229 206 214 233 233 223 221 223 226 230 231 234 235 228 218 208 226 225 208 221 221 224 227 229 231 214 221 208 210 224
167 160 158 166 158 156 160 160 162 162 164 166 161 151 154 159 157 154 160 161 151 167 172 191 210 235 219 219 227 271 287 312 307 285 296 305 295 298 299 302 305 303 293 298 308 302 309 308 303 290 288 278 277 269 274 253 231 213 226 244 232 231 223 221 216 224 229 224 225 225 202 223 222 213 220 237 221 226 218 238 223 224 224 216 218
165 166 168 164 160 162 165 169 167 167 167 171 162 151 153 154 159 153 167 161 150 167 180 193 223 244 258 251 239 237 256 266 287 304 302 305 304 305 312 315 310 316 312 307 318 313 308 303 300 303 298 297 287 280 267 270 265 243 226 241 248 245 236 224 221 215 218 223 225 227 212 211 223 217 220 227 217 220 214 234 232 217 221 223 220
169 168 167 160 160 168 167 172 171 170 164 162 155 153 152 155 158 162 171 166 165 175 182 206 229 242 247 249 250 259 279 291 303 313 312 310 311 317 316 317 320 321 319 316 311 313 300 299 299 295 292 285 283 274 268 266 266 262 240 241 235 244 241 229 224 217 218 221 221 223 226 214 212 216 218 220 209 230 219 219 235 221 224 221 211
168 166 161 161 162 166 171 173 173 166 164 155 152 152 153 156 162 170 169 170 174 168 188 206 219 227 236 248 260 277 297 310 317 317 315 315 320 324 328 327 332 325 310 310 309 302 289 286 300 306 291 286 283 281 273 267 265 264 259 256 246 243 248 234 221 218 219 212 211 218 220 219 218 204 216 218 213 224 223 224 220 225 221 223 230
163 162 159 164 161 167 168 167 167 164 161 155 152 156 160 163 167 167 164 159 166 171 190 207 219 225 244 254 270 304 317 327 322 319 320 321 327 330 333 334 343 334 320 318 313 307 306 303 292 296 299 294 285 287 287 278 271 267 267 270 265 267 260 243 223 223 218 219 210 213 217 205 217 221 211 213 215 215 224 229 224 226 225 220 234
160 160 164 163 163 166 164 160 164 159 155 155 155 157 166 167 164 161 152 163 158 187 182 209 220 236 246 266 301 321 321 317 318 317 321 320 321 323 325 330 328 322 318 316 310 308 305 304 297 293 295 294 291 286 286 287 287 279 275 268 264 260 249 247 225 227 225 226 216 212 211 209 223 220 221 220 207 212 215 222 227 237 236 225 226
163 161 161 157 165 166 162 158 159 151 149 152 155 160 167 166 158 152 155 168 181 209 213 229 248 248 261 302 318 313 309 306 305 307 307 311 314 313 316 314 319 317 316 315 313 308 309 307 302 296 298 293 291 287 287 287 283 278 271 267 269 265 262 247 230 221 223 223 221 212 210 212 218 220 222 225 222 210 204 215 223 234 244 216 223
164 163 159 157 161 165 161 157 154 148 149 152 157 160 163 161 155 144 157 159 187 206 211 221 258 298 328 323 322 306 298 292 286 288 292 305 307 307 310 313 314 310 306 307 307 310 309 304 303 301 283 284 285 292 287 285 287 283 276 272 269 266 263 258 242 229 212 222 221 212 206 214 216 222 218 223 224 226 198 208 211 220 227 220 209
166 161 157 156 159 166 161 161 155 155 153 153 155 157 154 143 139 143 150 158 162 231 257 265 298 324 324 322 312 296 283 278 284 300 306 303 300 300 307 310 308 303 299 302 300 303 302 299 294 290 282 278 283 286 289 289 282 282 280 273 270 265 267 260 255 247 234 221 219 218 217 221 214 212 218 221 226 221 227 198 209 215 219 219 207
165 162 155 158 157 166 161 160 157 158 152 148 147 140 133 122 123 132 129 124 213 319 349 314 343 333 324 312 296 286 304 320 325 310 294 300 300 306 312 316 311 306 303 300 298 298 296 295 292 287 279 276 277 278 287 289 286 284 280 278 271 260 263 264 260 254 246 242 240 235 224 225 228 220 219 217 216 218 217 224 212 223 219 206 208
162 164 159 160 158 162 160 154 159 158 151 144 144 142 137 142 138 139 151 123 274 267 343 344 353 344 325 307 319 325 337 332 318 294 286 292 301 312 318 318 312 305 301 301 300 301 305 303 296 294 290 276 253 260 264 273 277 273 277 276 271 266 260 255 253 250 249 248 246 239 232 233 228 226 222 221 220 220 225 223 225 221 225 195 201
158 162 163 164 160 161 158 155 157 157 154 151 152 147 147 138 128 137 48 161 99 71 48 48 45 49 18 1 360 355 343 329 311 295 300 304 306 316 318 310 309 305 304 301 304 307 305 301 299 301 298 292 281 262 250 256 265 271 261 265 272 267 255 251 247 245 244 246 247 245 240 233 231 226 219 215 220 222 226 224 224 227 221 225 195
158 164 166 167 166 159 161 152 155 163 158 158 153 160 168 138 128 124 123 99 112 90 81 69 41 40 35 26 12 352 344 333 329 324 316 316 318 317 308 306 315 305 296 294 290 287 292 292 295 295 278 288 291 281 266 238 250 257 278 283 269 248 254 257 245 245 245 246 245 238 238 233 230 229 224 220 223 225 226 225 226 225 225 221 221
156 159 159 161 159 156 156 151 156 158 159 157 161 158 154 75 68 89 101 108 75 53 47 45 39 43 45 42 28 20 13 7 357 346 333 334 327 317 311 309 309 303 288 288 295 296 290 284 285 284 289 261 267 260 251 230 262 256 262 277 277 288 244 234 245 245 241 242 237 235 234 233 235 230 222 211 216 222 226 224 225 224 222 219 219
127 136 151 157 154 153 153 158 156 159 163 164 155 116 114 110 90 100 93 59 86 82 89 64 67 77 69 61 58 49 48 42 33 21 5 349 333 321 318 314 311 307 303 297 292 289 293 299 288 281 284 286 273 265 240 244 242 252 264 245 266 265 285 265 251 241 237 237 232 234 232 235 236 235 227 225 220 220 218 215 230 228 223 220 220
124 133 141 135 135 145 151 159 160 163 155 152 142 129 126 125 121 113 118 112 110 101 113 86 70 78 85 71 59 55 58 56 44 36 24 9 4 348 331 321 313 310 301 298 299 302 302 300 301 298 280 279 288 286 277 234 229 224 251 260 242 238 255 280 290 269 220 233 234 235 235 235 233 233 227 228 224 219 215 216 224 217 216 227 223
106 95 108 105 124 128 129 133 138 144 140 135 135 147 135 134 147 151 148 145 135 124 96 97 95 77 71 79 65 51 48 45 37 28 24 15 7 4 350 341 336 330 321 313 308 304 300 298 297 297 298 292 286 291 288 274 250 240 234 236 246 276 285 262 292 279 157 230 238 232 236 234 233 229 227 225 223 221 219 221 216 212 214 216 225
88 93 102 113 116 115 123 136 138 130 125 129 144 140 134 144 145 137 113 117 115 103 99 101 105 104 83 70 63 53 43 40 33 27 23 17 15 15 10 2 344 342 335 324 318 312 306 302 300 295 292 292 289 281 279 283 279 250 247 237 231 232 248 252 256 265 275 241 216 230 235 235 235 232 232 226 222 219 218 209 211 219 213 207 226
104 101 106 110 113 114 116 117 120 110 104 124 126 116 131 133 128 113 108 101 98 112 116 112 106 93 71 60 57 50 42 35 27 25 20 17 16 14 9 5 356 353 342 332 321 317 312 311 309 304 297 291 291 290 292 288 281 283 225 275 246 258 263 252 239 252 271 279 264 231 232 238 233 233 233 233 224 205 215 209 209 214 210 204 222
114 110 108 110 116 117 116 117 110 97 94 102 113 109 110 113 106 111 108 104 109 108 114 98 79 64 58 54 49 44 37 33 28 25 21 18 17 11 9 6 356 351 336 325 321 318 320 316 312 305 300 296 292 287 281 284 285 288 291 275 252 225 244 244 235 240 247 258 263 259 250 222 229 234 231 229 227 214 211 207 204 211 213 194 212
122 120 113 113 111 104 100 98 92 88 94 96 98 99 101 101 100 103 105 104 108 107 78 62 54 39 40 39 36 34 24 23 22 24 21 14 11 9 8 4 352 343 335 333 333 334 335 327 314 306 302 302 294 292 298 300 289 281 282 289 285 281 267 243 234 245 243 241 260 269 259 230 225 225 221 221 220 224 218 212 207 209 208 201 199
122 120 118 111 103 93 100 96 95 95 90 89 91 89 86 90 99 93 91 91 83 68 70 60 46 37 34 33 31 27 22 21 17 18 20 9 10 5 3 358 351 350 345 345 345 340 335 330 322 317 313 306 297 299 296 297 295 296 285 273 276 284 286 277 247 238 241 253 253 253 257 251 244 245 223 218 215 223 218 213 211 210 205 201 192